Weather reports worldwide

Advertisment
Jativa, Spain (8290): temperature & dewpoint: 16.06.2018 15:00:00 - 22.06.2018 15:00:00 (CEST)Jativa, Spain (8290): wind speed & gusts: 16.06.2018 15:00:00 - 22.06.2018 15:00:00 (CEST)Jativa, Spain (8290): wind direction: 16.06.2018 15:00:00 - 22.06.2018 15:00:00 (CEST)Jativa, Spain (8290): reduced air pressure: 16.06.2018 15:00:00 - 22.06.2018 15:00:00 (CEST)Jativa, Spain (8290): visibility: 16.06.2018 15:00:00 - 22.06.2018 15:00:00 (CEST)Jativa, Spain (8290): sunshine duration: 16.06.2018 15:00:00 - 22.06.2018 15:00:00 (CEST)Jativa, Spain (8290): precipitation: 16.06.2018 15:00:00 - 22.06.2018 15:00:00 (CEST)
Date & Time tt [°C] td [°C] ff [km/h] ff [kn] fx [km/h] fx [kn] dd ppp [hPa] vv [km] sd [min] rr [mm]
22.06.2018 15:00:00 - - - - - - - - - - -
22.06.2018 14:00:00 34,7 10,5 6 3 23 13 NW 1015,5 20 60 -
22.06.2018 13:00:00 33,4 8,8 6 3 16 9 NNE 1016,2 20 60 0,0
22.06.2018 12:00:00 32,4 8,7 4 2 12 7 NNE 1016,4 20 60 0,0
22.06.2018 11:00:00 30,1 9,6 3 2 9 5 WNW 1016,6 20 60 0,0
22.06.2018 10:00:00 27,4 10,5 2 1 12 6 ESE 1017,0 20 60 0,0
22.06.2018 09:00:00 23,4 10,0 6 3 14 7 WSW 1017,1 20 60 0,0
22.06.2018 08:00:00 20,1 9,3 7 4 21 12 WSW 1017,2 20 57 -
22.06.2018 07:00:00 18,1 9,7 9 5 16 8 WSW 1017,2 20 0 0,0
22.06.2018 06:00:00 18,6 9,7 8 4 21 11 WSW 1017,0 20 0 0,0
22.06.2018 05:00:00 19,0 9,4 10 5 16 9 WSW 1016,9 20 0 0,0
22.06.2018 04:00:00 19,4 10,6 9 5 15 8 W 1017,1 20 0 0,0
22.06.2018 03:00:00 20,2 11,7 3 2 11 6 SSW 1017,3 20 0 0,0
22.06.2018 02:00:00 21,1 13,8 7 4 11 6 W 1017,4 20 0 -
22.06.2018 01:00:00 22,2 14,6 2 1 7 4 E 1017,5 20 0 0,0
22.06.2018 00:00:00 24,2 14,3 5 3 10 5 SE 1017,1 20 0 0,0
21.06.2018 23:00:00 25,7 12,8 4 2 7 4 SW 1016,6 20 0 0,0
21.06.2018 22:00:00 27,6 12,0 3 1 12 6 WNW 1015,6 20 13 0,0
21.06.2018 21:00:00 31,6 5,9 6 3 16 9 NE 1015,2 20 60 0,0
21.06.2018 20:00:00 32,7 4,5 13 7 24 13 NE 1015,1 20 60 -
21.06.2018 19:00:00 33,5 3,2 15 8 28 15 NE 1015,1 20 60 0,0
21.06.2018 18:00:00 34,3 4,8 15 8 25 13 NE 1015,1 20 60 0,0
21.06.2018 17:00:00 34,1 8,7 10 6 25 14 NE 1015,4 20 60 0,0
21.06.2018 16:00:00 33,6 11,4 11 6 27 14 ENE 1015,8 20 60 0,0
21.06.2018 15:00:00 33,1 11,0 9 5 26 14 N 1016,1 20 60 0,0
21.06.2018 14:00:00 32,1 11,8 8 4 20 11 ENE 1016,6 20 60 -
21.06.2018 13:00:00 30,9 11,3 6 3 17 9 NE 1017,5 20 60 0,0
21.06.2018 12:00:00 29,1 10,8 5 3 13 7 SSE 1017,9 20 60 0,0
21.06.2018 11:00:00 27,0 12,2 2 1 10 5 SE 1018,1 20 60 0,0
21.06.2018 10:00:00 25,0 13,9 5 3 10 5 W 1018,3 20 60 0,0
21.06.2018 09:00:00 21,8 13,0 7 4 15 8 W 1018,7 20 60 0,0
21.06.2018 08:00:00 19,0 11,6 9 5 20 11 WSW 1018,6 20 50 -
21.06.2018 07:00:00 17,4 11,9 10 5 16 8 W 1018,4 20 0 0,0
21.06.2018 06:00:00 17,5 12,0 9 5 16 8 WSW 1018,1 20 0 0,0
21.06.2018 05:00:00 18,4 12,4 8 5 14 8 WSW 1018,3 20 0 0,0
21.06.2018 04:00:00 18,6 13,5 8 4 11 6 WSW 1018,5 20 0 0,0
21.06.2018 03:00:00 19,6 14,6 6 3 9 5 W 1018,8 20 0 0,0
21.06.2018 02:00:00 20,6 14,7 7 4 12 7 WSW 1018,9 20 0 -
21.06.2018 01:00:00 21,1 15,9 8 4 13 7 WSW 1018,8 20 0 0,0
21.06.2018 00:00:00 22,2 14,3 5 3 12 6 WSW 1018,6 20 0 0,0
20.06.2018 23:00:00 23,4 13,9 4 2 10 5 W 1018,3 20 0 0,0
20.06.2018 22:00:00 25,8 9,6 5 3 18 10 NNE 1017,3 20 12 0,0
20.06.2018 21:00:00 28,6 10,8 13 7 21 12 N 1016,8 20 60 0,0
20.06.2018 20:00:00 30,5 10,4 12 7 24 13 NE 1016,3 20 60 -
20.06.2018 19:00:00 31,9 9,4 16 8 30 16 ENE 1015,8 20 60 0,0
20.06.2018 18:00:00 32,8 8,3 14 8 28 15 ENE 1016,1 20 60 0,0
20.06.2018 17:00:00 32,7 9,4 14 8 29 16 E 1016,0 20 60 0,0
20.06.2018 16:00:00 32,7 11,2 17 9 34 18 NE 1016,3 20 60 0,0
20.06.2018 15:00:00 32,4 12,1 13 7 30 16 NE 1016,7 20 60 0,0
20.06.2018 14:00:00 31,8 11,6 11 6 25 14 NNE 1017,3 20 60 -
20.06.2018 13:00:00 30,9 9,7 9 5 19 10 NE 1018,0 20 60 0,0
20.06.2018 12:00:00 29,5 9,6 6 3 16 8 NNE 1018,4 20 60 0,0
20.06.2018 11:00:00 27,8 10,0 4 2 9 5 NE 1018,9 20 60 0,0
20.06.2018 10:00:00 25,1 11,3 4 2 11 6 WNW 1019,2 20 60 0,0
20.06.2018 09:00:00 22,2 11,0 7 4 14 8 WSW 1019,4 20 60 0,0
20.06.2018 08:00:00 19,8 11,6 5 3 12 7 WSW 1019,4 20 60 -
20.06.2018 07:00:00 17,5 12,0 8 4 14 8 W 1019,4 20 1 0,0
20.06.2018 06:00:00 17,8 12,4 6 3 - - WSW 1019,2 20 - -
20.06.2018 05:00:00 18,7 13,4 8 4 10 6 W 1019,1 20 0 0,0
20.06.2018 04:00:00 19,1 13,8 5 3 9 5 W 1019,5 20 0 0,0
20.06.2018 03:00:00 19,9 14,0 6 3 10 5 W 1019,5 20 0 0,0
20.06.2018 02:00:00 20,8 14,9 4 2 9 5 W 1019,7 20 0 -
20.06.2018 01:00:00 21,9 15,0 6 3 9 5 W 1019,8 20 0 0,0
20.06.2018 00:00:00 22,0 14,9 3 2 14 8 N 1019,6 20 0 0,0
19.06.2018 23:00:00 23,5 14,5 9 5 14 8 WSW 1019,0 20 0 0,0
19.06.2018 22:00:00 26,0 13,9 8 4 16 9 W 1018,1 20 11 0,0
19.06.2018 21:00:00 29,2 10,8 10 5 24 13 NNE 1017,6 20 60 0,0
19.06.2018 20:00:00 30,8 9,7 14 8 27 15 ENE 1017,3 20 60 -
19.06.2018 19:00:00 31,7 11,0 16 9 29 15 ENE 1017,2 20 60 0,0
19.06.2018 18:00:00 31,9 11,1 19 11 29 16 NE 1017,5 20 60 0,0
19.06.2018 17:00:00 31,5 11,8 19 10 33 18 NNE 1017,8 20 60 0,0
19.06.2018 16:00:00 31,3 12,6 16 9 30 16 NNE 1018,4 20 60 0,0
19.06.2018 15:00:00 31,1 13,9 13 7 25 14 NE 1019,0 20 60 0,0
19.06.2018 14:00:00 30,3 12,2 14 7 26 14 NE 1019,6 20 60 -
19.06.2018 13:00:00 29,6 10,6 10 5 22 12 N 1020,4 20 60 0,0
19.06.2018 12:00:00 28,2 10,4 4 2 16 9 SSE 1021,0 20 60 0,0
19.06.2018 11:00:00 26,1 11,4 3 2 10 5 W 1021,3 20 60 0,0
19.06.2018 10:00:00 24,4 12,3 3 2 11 6 W 1021,8 20 60 0,0
19.06.2018 09:00:00 21,6 10,8 6 3 13 7 WSW 1021,9 20 60 0,0
19.06.2018 08:00:00 19,0 10,5 8 4 14 8 WSW 1021,6 20 58 -
19.06.2018 07:00:00 17,0 10,9 8 4 16 9 WSW 1021,5 20 3 0,0
19.06.2018 06:00:00 17,0 11,2 7 4 16 9 WSW 1021,0 20 0 0,0
19.06.2018 05:00:00 17,7 11,4 7 4 12 7 WSW 1020,5 20 0 0,0
19.06.2018 04:00:00 18,1 11,4 7 4 15 8 WSW 1020,3 20 0 0,0
19.06.2018 03:00:00 18,9 11,9 4 2 9 5 W 1020,3 20 0 0,0
19.06.2018 02:00:00 20,0 11,4 6 4 9 5 WSW 1020,2 20 0 -
19.06.2018 01:00:00 21,0 11,9 4 2 10 5 W 1020,4 20 0 0,0
19.06.2018 00:00:00 22,4 11,4 7 4 13 7 SW 1020,3 20 0 0,0
18.06.2018 23:00:00 23,2 10,6 6 3 13 7 W 1019,8 20 0 0,0
18.06.2018 22:00:00 25,1 7,7 12 6 21 11 NNE 1018,8 20 11 0,0
18.06.2018 21:00:00 28,4 8,1 12 7 23 12 NNE 1018,2 20 60 0,0
18.06.2018 20:00:00 29,5 8,5 14 8 28 15 NE 1017,7 20 60 -
18.06.2018 19:00:00 31,3 7,7 18 10 27 15 NNE 1017,3 20 60 0,0
18.06.2018 18:00:00 31,8 7,4 18 10 29 16 NNE 1017,6 20 60 0,0
18.06.2018 17:00:00 32,8 8,3 12 7 24 13 N 1017,9 20 60 0,0
18.06.2018 16:00:00 32,1 7,7 6 3 21 11 N 1018,2 20 60 0,0
18.06.2018 15:00:00 31,2 8,3 11 6 24 13 N 1019,2 20 60 0,0
18.06.2018 14:00:00 30,3 9,2 7 4 25 13 NW 1019,7 20 60 -
18.06.2018 13:00:00 29,4 10,5 11 6 23 13 NNW 1020,1 20 60 0,0
18.06.2018 12:00:00 28,2 11,3 8 4 18 10 NNE 1020,7 20 60 0,0
18.06.2018 11:00:00 27,1 11,1 9 5 16 9 NNE 1020,6 20 60 0,0
18.06.2018 10:00:00 25,6 10,6 4 2 13 7 NNE 1020,8 20 60 0,0
18.06.2018 09:00:00 22,8 11,6 6 4 13 7 WSW 1020,6 20 60 0,0
18.06.2018 08:00:00 19,7 13,0 7 4 15 8 W 1020,4 20 60 -
18.06.2018 07:00:00 17,7 12,5 8 5 13 7 WSW 1020,1 20 3 0,0
18.06.2018 06:00:00 18,1 13,6 4 2 13 7 W 1020,1 20 0 0,0
18.06.2018 05:00:00 18,6 14,2 7 4 14 7 W 1020,0 20 0 0,0
18.06.2018 04:00:00 19,4 14,6 9 5 14 7 WSW 1020,0 20 0 0,0
18.06.2018 03:00:00 20,0 15,4 4 2 14 8 W 1019,8 20 0 0,0
18.06.2018 02:00:00 20,4 15,8 5 3 8 4 WSW 1020,2 20 0 -
18.06.2018 01:00:00 21,6 16,3 1 1 9 5 SW 1020,8 20 0 0,0
18.06.2018 00:00:00 21,9 15,5 4 2 8 4 NNW 1020,6 20 0 0,0
17.06.2018 23:00:00 23,0 14,8 5 3 13 7 NW 1019,8 20 0 0,0
17.06.2018 22:00:00 24,0 14,4 9 5 23 12 NW 1019,1 20 8 0,0
17.06.2018 21:00:00 27,1 14,1 6 3 27 15 W 1018,1 20 60 0,0
17.06.2018 20:00:00 27,5 14,5 20 11 33 18 NNW 1017,1 20 60 -
17.06.2018 19:00:00 29,9 14,4 21 11 32 17 N 1016,6 20 54 0,0
17.06.2018 18:00:00 31,2 14,3 20 11 30 16 N 1016,3 20 56 0,0
17.06.2018 17:00:00 33,5 12,5 9 5 20 11 NE 1016,4 20 60 0,0
17.06.2018 16:00:00 32,9 13,1 7 4 25 14 NNE 1017,0 20 60 0,0
17.06.2018 15:00:00 32,1 11,8 11 6 23 13 NNW 1017,5 20 60 0,0
17.06.2018 14:00:00 30,7 12,1 11 6 24 13 ENE 1018,2 20 60 -
17.06.2018 13:00:00 30,2 13,1 10 5 24 13 NNE 1018,6 20 60 0,0
17.06.2018 12:00:00 28,9 10,5 10 6 19 10 NE 1018,6 20 60 0,0
17.06.2018 11:00:00 27,4 11,4 3 2 8 5 NW 1018,6 20 60 0,0
17.06.2018 10:00:00 25,5 12,0 3 2 12 7 N 1018,9 20 60 0,0
17.06.2018 09:00:00 22,0 12,8 8 4 16 8 WSW 1018,8 20 60 0,0
17.06.2018 08:00:00 19,3 13,5 7 4 16 9 WSW 1018,7 20 55 -
17.06.2018 07:00:00 17,7 14,4 7 4 11 6 WSW 1018,4 20 0 0,0
17.06.2018 06:00:00 18,2 14,3 7 4 13 7 WSW 1017,7 20 0 0,0
17.06.2018 05:00:00 18,8 14,9 7 4 14 7 W 1017,5 20 0 0,0
17.06.2018 04:00:00 19,5 15,8 6 3 10 5 W 1017,3 20 0 0,0
17.06.2018 03:00:00 20,2 16,0 5 3 8 5 W 1017,5 20 0 0,0
17.06.2018 02:00:00 21,3 16,0 4 2 6 4 WSW 1017,6 20 0 -
17.06.2018 01:00:00 21,7 16,4 3 2 18 10 NNW 1017,4 20 0 0,0
17.06.2018 00:00:00 22,2 16,2 3 2 11 6 N 1017,1 20 0 0,0
16.06.2018 23:00:00 22,5 15,6 5 3 13 7 WNW 1016,6 20 0 0,0
16.06.2018 22:00:00 23,2 14,7 6 3 24 13 NW 1015,5 20 2 0,0
16.06.2018 21:00:00 25,1 13,9 16 9 32 17 N 1014,6 20 60 0,0
16.06.2018 20:00:00 27,5 12,7 22 12 34 18 N 1013,6 20 59 -
16.06.2018 19:00:00 29,9 14,4 17 9 30 16 N 1012,7 20 60 0,0
16.06.2018 18:00:00 30,1 15,8 19 11 29 16 N 1012,7 20 60 0,0
16.06.2018 17:00:00 30,1 17,5 18 10 29 15 N 1012,9 20 60 0,0
16.06.2018 16:00:00 29,6 17,1 18 10 29 16 N 1013,4 20 60 0,0
16.06.2018 15:00:00 29,6 16,7 16 9 27 15 NNE 1013,9 20 60 0,0

tt = temperature
td = dewpoint
ff = wind speed
fx = gusts
dd = wind direction
ppp = reduced air pressure
vv = visibility
sd = sunshine duration
rr = precipitation

Next stations